GSAT0210 (PRN E01)

Last updated on Nov. 21, 2019, 4:16 a.m. UTC

1 41550U 16030B   19324.20006051 -.00000020  00000-0  00000+0 0  9990
2 41550  56.4632 287.7176 0004267 274.6543  85.2849  1.70474234 21710
UTC
Height (km)
Latitude
Longitude
Inclination
Orbital Period
UTC large
Height (km)
Speed (km/s)
/
Latitude / Longitude
Inclination (degrees)
Orbital Period (minutes)
Azimuth
Elevation
Range (km)
Doppler Factor
iOS Compass Heading
iOS Angle

Next 30 passes for location: Hong Kong

Rise time Rise Azimuth (degrees) Set time Set Azimuth (degrees) Duration Max altitude (degrees)

No matching passes for this satellites